Vertical_Velocity
-2 -2 -1 -1 -1 -1 2 -2 -3 -1 1 -1 -2 -1 -1 1 -0 -1 1 -1 -2 -0 -0 -1 -1 1 1 -1 -1 -2 -2 0 -1 -1 0 -3 -3 -2 -0 -3 -0 1 -2 0 -0 -0 -0
-1 -1 -1 -2 -2 -2 -0 1 -1 -2 -4 0 2 -2 -0 -1 1 0 -0 1 -3 2 -1 -0 2 -1 -0 0 -2 -0 -2 -0 2 -3 -1 2 -2 -0 -3 -2 -1 -0 -0 -2 -1 -1 -3
-3 -3 -3 -4 -0 -1 -2 -3 -1 0 1 -2 -1 3 -1 -1 -2 -0 0 0 -1 -2 0 -2 1 2 -1 1 -1 -0 -2 -3 -0 -1 0 -1 -2 -2 0 -0 4 0 -8 0 2 0 -3
-1 -2 -2 -2 -3 -4 -3 -1 1 -2 -1 -1 -1 -0 0 -1 -0 -0 -2 -1 2 -1 0 -1 1 0 1 -1 3 1 -3 -0 -2 1 -3 -1 -2 -2 -2 -0 -3 -1 4 -3 -1 -1 -1
-1 -2 -2 -2 -3 -3 -3 -3 -3 1 -2 -1 1 -2 -2 0 2 0 -2 1 1 -0 1 -1 2 4 1 2 1 -1 0 2 -3 -2 -3 -3 -0 0 -2 1 -3 -1 -1 -0 -1 0 -1
-1 -2 -2 -3 -2 -3 -3 -2 -3 -3 -1 -3 -1 0 1 -1 3 -2 1 3 -1 3 -0 2 1 2 -2 -1 3 -2 1 -1 -1 2 -0 -1 -2 -0 1 0 -2 -4 -3 -0 0 0 -1
-2 -3 -3 -3 -4 -2 -1 -3 -3 -2 -2 -2 -3 -0 3 -2 -2 3 3 -0 2 0 1 3 -4 3 3 0 -5 2 -2 2 -0 -0 1 -2 -1 -3 0 -0 1 -1 -1 1 -0 -1 0
-2 -2 -3 -2 -0 -2 -2 -2 -3 -3 -2 -3 -0 -1 3 -5 -1 7 -0 1 6 1 -0 0 -1 4 3 0 -2 -3 3 3 -1 -1 -1 -1 -2 0 -1 -0 -1 1 0 0 1 -2 -2
-2 -3 -3 -3 -4 -5 -4 -3 -1 -2 -3 -3 -3 -2 1 -3 -3 5 2 15 4 6 0 2 -3 3 4 2 3 -6 1 5 1 2 -0 0 -0 1 -2 -1 -1 0 0 -3 -1 -1 -0
-3 -3 -4 -3 -3 -3 -3 -4 -3 -1 -3 -3 -2 -2 1 -4 22 0 -8 22 4 8 -1 -3 -6 -3 1 -3 2 0 2 2 -1 2 1 -1 -0 0 -1 0 1 -0 -0 -1 1 2 0
-2 -2 -2 -2 -3 -2 -2 -4 -2 -2 -2 -2 -3 -3 1 1 -0 3 -5 23 12 7 1 2 -6 1 0 2 -1 -5 5 5 4 -0 -0 -1 1 -0 1 2 -3 -2 0 1 -1 -0 -0
-3 -2 -1 -3 -1 -2 -4 -1 -3 -1 -2 -2 -3 -2 -4 0 2 21 -2 2 26 12 -17 -0 2 -8 -2 0 -2 2 1 3 5 1 2 0 -1 -1 1 -0 0 0 -2 -0 -0 0 1
-1 -2 -2 -2 -1 -1 -2 -1 3 -0 -1 -2 -2 -3 -1 -2 10 18 7 41 17 -4 7 -7 -8 -3 5 -3 -1 2 -1 3 -4 -7 1 1 1 1 2 1 4 -0 -1 -1 -0 0 -2
-2 -0 -4 -3 -2 -2 -3 -1 6 -2 -2 -2 -3 -4 3 9 -2 12 25 49 -3 -1 4 -1 -5 9 4 6 6 -1 1 -0 4 2 -3 -2 2 1 1 1 -4 -1 2 -3 -2 -0 1
-2 0 -2 -1 -4 -1 -2 3 4 1 -2 -2 -3 -1 -1 7 -3 27 21 24 -19 -1 1 -3 12 11 3 4 2 -0 2 6 3 3 -2 -4 -1 2 0 2 1 -2 1 -0 -1 -2 -0
-2 -2 -2 1 -2 -1 2 2 2 -1 -1 -0 -2 -3 4 2 3 17 16 1 1 -1 8 13 -3 1 -6 -3 -3 1 -1 -1 2 1 -1 -2 -4 0 -0 1 4 -1 1 -4 -2 -0 -0
-1 -1 -2 -0 -3 2 4 1 2 -1 -1 -1 -3 -6 0 3 -3 14 -2 -9 -7 12 9 0 -2 -5 -2 -11 1 -3 5 -3 1 -3 1 -1 2 -0 2 -1 -5 -2 -3 -3 -1 -1 -0
-1 -0 -1 -1 -2 1 0 3 -0 0 -1 -1 1 -6 -1 -4 -3 -16 -1 14 3 8 8 -0 0 5 5 0 -1 -1 -5 -1 -0 6 1 -1 0 -2 -4 1 1 -1 -2 0 -0 -2 -1
-0 -0 -1 -1 -2 1 -2 0 1 1 1 3 -4 -6 1 13 -4 -12 1 -2 -3 1 4 4 0 1 -1 -3 4 1 -1 -0 4 2 -1 -6 1 -2 1 -1 -2 -3 -1 -1 -2 0 -3
-0 -1 -1 -2 -3 3 -1 1 1 1 2 -0 1 -7 6 -4 18 -29 10 -3 -2 -2 4 8 1 4 2 4 3 -4 1 -2 -0 2 1 1 -2 0 -6 1 0 -6 -0 1 2 -1 -5
0 -1 -1 -1 -2 3 -1 0 -1 2 5 3 -1 -9 -3 7 22 13 5 7 6 -5 8 6 3 4 -2 -7 2 -4 -1 -1 2 -2 3 -2 -3 1 -2 -1 -1 2 2 0 -7 2 -6
1 -1 -1 -0 -1 1 -1 1 -1 -2 15 4 -4 -4 -5 0 4 6 -1 0 -1 15 -17 -1 -0 0 3 -1 -4 -12 -2 -5 -7 -3 -0 -0 1 -2 -1 -2 2 0 -0 0 0 -1 -4
1 2 -0 -1 -0 1 -1 1 -1 1 9 7 -4 -5 -4 -5 3 -5 -9 2 8 -13 9 4 5 1 -5 0 2 2 2 3 5 2 -0 -1 0 -3 0 -1 -0 -5 -4 -4 -1 -1 9
1 1 1 -0 -0 1 0 0 -1 2 2 0 -4 1 -0 -8 -7 7 2 -3 15 -14 -8 -1 6 -4 1 -2 1 4 2 6 1 3 4 4 2 1 -3 -1 -1 -1 -1 -0 -3 1 -4
1 1 -0 0 1 1 2 -1 0 1 -2 -6 3 0 -1 -9 7 -6 10 5 3 22 5 -4 15 3 7 3 1 1 7 -1 -1 1 2 1 -0 -2 -1 -2 -6 -2 -6 -4 3 -2 -2
3 -0 0 1 -0 1 1 -1 1 1 -7 4 -1 4 6 -4 -8 -3 1 18 -17 -11 23 13 -3 -6 2 1 4 -2 -4 -1 -2 -0 2 2 -1 3 -1 -2 -2 -2 -0 2 1 -13 -4
1 1 2 1 -0 2 -1 -1 1 -2 -3 -0 -4 3 8 -3 -9 2 1 2 39 1 6 1 -5 1 6 2 2 -0 -1 -1 -3 0 -4 1 0 2 -3 -1 -9 -1 1 -2 -0 -1 -0
0 2 3 2 1 2 -1 -0 0 1 -2 -2 -2 7 1 -11 5 -5 -8 13 8 8 -2 -5 9 -6 -1 6 5 -1 2 -1 -2 1 -3 0 -3 -3 -1 -3 -13 0 -0 -4 -1 -1 0
5 6 6 6 8 4 0 1 1 2 -2 7 -2 7 3 -8 -4 -2 -9 4 10 2 23 1 2 -4 -0 7 -1 4 -4 -4 -6 -5 -2 -7 -3 -1 -9 -1 -0 -1 -1 -2 0 -0 0
Height
3126 3127 3127 3129 3130 3130 3132 3134 3136 3137 3141 3143 3145 3148 3152 3154 3157 3159 3162 3164 3165 3168 3168 3169 3171 3169 3171 3171 3172 3171 3171 3173 3172 3171 3170 3168 3168 3167 3167 3166 3167 3167 3169 3172 3175 3176 3178
3121 3121 3122 3122 3124 3125 3126 3127 3127 3129 3132 3135 3138 3141 3145 3149 3151 3154 3157 3159 3161 3164 3165 3167 3167 3169 3169 3170 3170 3170 3170 3170 3170 3169 3168 3167 3166 3166 3165 3165 3167 3169 3170 3172 3176 3177 3178
3116 3116 3117 3117 3117 3118 3119 3121 3121 3121 3123 3127 3129 3133 3137 3141 3146 3149 3151 3155 3157 3159 3162 3164 3165 3165 3166 3168 3167 3168 3168 3169 3168 3167 3167 3166 3165 3165 3166 3166 3169 3170 3171 3174 3178 3179 3179
3110 3110 3110 3111 3112 3112 3112 3113 3114 3115 3116 3117 3121 3124 3129 3134 3139 3143 3146 3149 3153 3155 3157 3161 3162 3164 3165 3166 3165 3166 3167 3168 3167 3166 3166 3165 3164 3164 3165 3166 3169 3171 3174 3174 3178 3178 3179
3104 3104 3105 3106 3106 3106 3106 3108 3108 3108 3109 3110 3113 3116 3120 3127 3131 3136 3140 3144 3148 3151 3153 3157 3159 3160 3163 3163 3164 3164 3165 3166 3165 3165 3165 3165 3165 3165 3165 3166 3169 3172 3173 3174 3176 3177 3178
3097 3097 3098 3097 3097 3097 3098 3099 3100 3101 3101 3104 3106 3108 3112 3118 3124 3128 3134 3139 3142 3146 3149 3152 3155 3160 3161 3161 3161 3162 3163 3163 3164 3163 3164 3165 3164 3165 3166 3168 3169 3170 3171 3174 3175 3177 3177
3092 3091 3090 3089 3088 3090 3090 3091 3091 3091 3092 3095 3096 3100 3104 3111 3117 3122 3128 3134 3140 3142 3143 3148 3151 3153 3155 3159 3159 3161 3161 3162 3162 3163 3162 3162 3164 3164 3166 3168 3169 3170 3171 3173 3175 3176 3177
3085 3084 3084 3083 3083 3083 3082 3082 3083 3083 3083 3084 3088 3091 3096 3104 3113 3116 3121 3126 3131 3136 3140 3143 3147 3149 3151 3155 3158 3159 3161 3162 3161 3161 3162 3163 3163 3166 3167 3168 3169 3170 3171 3174 3175 3175 3177
3078 3078 3077 3077 3077 3077 3076 3076 3075 3075 3076 3076 3078 3083 3088 3096 3104 3110 3115 3124 3127 3131 3136 3137 3142 3145 3148 3153 3153 3157 3159 3158 3160 3161 3161 3162 3163 3164 3166 3168 3169 3170 3172 3173 3175 3174 3175
3071 3071 3070 3069 3068 3067 3067 3068 3069 3069 3070 3070 3072 3075 3080 3089 3099 3104 3109 3119 3124 3128 3133 3132 3134 3140 3144 3146 3151 3153 3155 3158 3158 3159 3160 3162 3162 3163 3165 3167 3168 3169 3172 3173 3174 3175 3175
3064 3064 3063 3062 3061 3060 3061 3062 3063 3064 3065 3066 3066 3068 3073 3083 3090 3098 3106 3114 3119 3126 3128 3127 3128 3132 3137 3142 3146 3149 3151 3153 3155 3157 3161 3161 3161 3163 3164 3166 3168 3170 3172 3174 3174 3175 3174
3056 3056 3056 3054 3054 3054 3056 3057 3058 3060 3061 3061 3062 3063 3066 3076 3082 3092 3098 3105 3114 3121 3115 3114 3116 3122 3129 3134 3140 3144 3147 3151 3152 3155 3157 3159 3160 3162 3164 3165 3167 3169 3171 3174 3175 3175 3174
3049 3049 3048 3048 3048 3050 3051 3053 3054 3056 3057 3057 3058 3059 3060 3065 3076 3084 3085 3091 3103 3102 3103 3105 3107 3112 3122 3127 3134 3139 3142 3144 3147 3151 3155 3158 3159 3161 3163 3165 3167 3169 3171 3175 3177 3175 3171
3042 3041 3041 3041 3043 3045 3046 3048 3050 3052 3053 3054 3054 3055 3056 3059 3068 3076 3079 3081 3090 3083 3093 3094 3102 3110 3116 3122 3127 3131 3137 3140 3142 3146 3149 3154 3158 3159 3160 3162 3164 3167 3170 3170 3171 3170 3168
3034 3034 3034 3035 3037 3040 3043 3044 3045 3048 3049 3050 3050 3050 3051 3057 3059 3068 3074 3072 3071 3076 3087 3090 3099 3104 3111 3116 3121 3128 3133 3137 3140 3143 3147 3149 3152 3154 3157 3160 3164 3165 3167 3169 3169 3170 3169
3026 3026 3028 3029 3032 3035 3037 3039 3041 3044 3046 3046 3047 3046 3049 3050 3054 3063 3065 3065 3074 3077 3084 3089 3091 3098 3102 3109 3117 3122 3128 3131 3135 3139 3142 3145 3149 3152 3155 3159 3161 3162 3165 3168 3168 3169 3166
3018 3019 3021 3024 3027 3029 3032 3035 3037 3040 3042 3043 3044 3044 3045 3046 3047 3056 3057 3063 3075 3078 3079 3085 3088 3092 3099 3103 3111 3116 3123 3126 3130 3134 3138 3142 3146 3152 3155 3154 3155 3159 3160 3162 3164 3163 3160
3010 3011 3014 3018 3020 3022 3026 3030 3033 3036 3039 3040 3042 3043 3043 3043 3048 3052 3055 3060 3070 3073 3077 3081 3088 3093 3096 3101 3107 3112 3118 3122 3126 3130 3134 3139 3142 3147 3150 3150 3151 3154 3156 3159 3160 3160 3157
3002 3003 3006 3011 3014 3017 3021 3025 3029 3032 3035 3037 3039 3041 3042 3043 3045 3048 3056 3059 3065 3070 3077 3082 3086 3091 3094 3098 3105 3109 3115 3121 3123 3126 3130 3135 3139 3144 3148 3151 3148 3147 3150 3151 3155 3157 3153
2994 2995 2998 3003 3007 3010 3015 3020 3025 3028 3031 3034 3037 3037 3038 3039 3042 3048 3053 3057 3061 3071 3078 3081 3084 3087 3092 3096 3101 3104 3112 3118 3121 3124 3128 3132 3135 3137 3138 3137 3139 3140 3141 3145 3150 3151 3146
2986 2988 2991 2995 2999 3004 3009 3014 3020 3024 3028 3030 3032 3032 3032 3030 3038 3045 3053 3055 3060 3065 3070 3076 3081 3085 3090 3093 3099 3102 3109 3114 3118 3122 3126 3130 3132 3134 3135 3137 3137 3137 3137 3137 3139 3141 3141
2978 2981 2984 2988 2992 2997 3002 3007 3014 3019 3023 3025 3028 3030 3030 3027 3027 3032 3041 3049 3056 3062 3070 3076 3081 3085 3088 3093 3099 3101 3106 3111 3115 3120 3123 3127 3129 3130 3133 3134 3134 3133 3133 3133 3134 3135 3134
2969 2973 2976 2980 2985 2990 2996 3001 3008 3013 3017 3019 3023 3028 3031 3028 3030 3036 3038 3046 3051 3059 3068 3074 3079 3082 3088 3093 3097 3101 3105 3110 3113 3117 3119 3124 3126 3128 3131 3130 3131 3128 3124 3125 3127 3127 3130
2960 2964 2968 2972 2976 2981 2987 2994 3000 3006 3010 3015 3021 3027 3029 3029 3031 3032 3041 3044 3048 3053 3064 3072 3077 3082 3088 3091 3095 3099 3102 3107 3111 3114 3118 3120 3123 3127 3128 3129 3128 3119 3119 3120 3121 3121 3123
2950 2953 2956 2961 2966 2971 2978 2985 2992 2999 3004 3009 3016 3022 3025 3025 3029 3033 3035 3044 3048 3052 3058 3065 3074 3079 3083 3088 3093 3097 3101 3106 3110 3112 3114 3117 3121 3123 3126 3124 3119 3117 3117 3117 3117 3118 3118
2939 2941 2944 2949 2954 2960 2966 2974 2983 2991 2998 3003 3011 3018 3022 3023 3023 3029 3032 3037 3043 3050 3056 3062 3070 3077 3083 3087 3091 3092 3097 3103 3107 3109 3111 3114 3117 3122 3121 3122 3119 3114 3113 3113 3115 3114 3115
2927 2930 2934 2938 2943 2949 2956 2964 2972 2982 2991 2996 3004 3011 3017 3019 3022 3026 3031 3036 3039 3046 3053 3060 3065 3073 3080 3084 3088 3091 3094 3099 3101 3103 3106 3110 3115 3116 3117 3118 3113 3111 3111 3113 3116 3117 3112
2917 2921 2925 2929 2934 2939 2947 2955 2963 2973 2983 2990 2999 3007 3011 3013 3021 3022 3026 3029 3036 3044 3049 3057 3065 3069 3077 3082 3086 3088 3091 3095 3099 3101 3102 3105 3108 3110 3114 3116 3110 3106 3108 3111 3112 3111 3112
2911 2915 2919 2923 2928 2932 2938 2946 2955 2965 2976 2986 2993 3001 3007 3011 3015 3019 3024 3024 3031 3036 3046 3051 3057 3064 3072 3079 3083 3086 3088 3092 3096 3098 3100 3103 3104 3105 3108 3106 3106 3106 3106 3108 3109 3111 3111